User: anonymous   Login
Location: Unspecified
(0.0000°N, 0.0000°E)
Time: 18:05:58
(UTC+00:00)
Language:

S-56A Canister/Altair - Orbit

View from above orbital plane
View from above orbital plane
View from above satellite
View from above satellite

Ground track
Ground track

The orbit data is extracted from the following two-line orbital elements,

1    82U 61004B   17056.88721078 +.00000100 +00000-0 +13257-3 0  9993
2    82 038.8557 348.9612 1168033 016.5355 347.0309 12.25815318659606
Epoch (UTC): 25 February 2017 21:17:35
Eccentricity: 0.1168033
inclination: 38.8557°
perigee height: 639 km
apogee height: 2495 km
right ascension of ascending node: 348.9612°
argument of perigee: 16.5355°
revolutions per day: 12.25815318
mean anomaly at epoch: 347.0309°
orbit number at epoch: 65960

The dashed part of the orbit path shows where the satellite is in the earth's shadow,  

DLR